FO-98
1 43933U 19003B 19283.71411302 .00000629 00000-0 30596-4 0 9991
2 43933 97.2694 337.5306 0019195 47.6511 67.5382 15.21757798 40396
FO-99
1 43937U 19003F 19283.71223206 .00001122 00000-0 49117-4 0 9997
2 43937 97.2648 338.1094 0025354 33.2797 93.9246 15.23781809 40441
Delphini 1
1 44030U 98067PW 19283.62884949 .00015571 00000-0 20561-3 0 9990
2 44030 51.6363 140.2451 0004695 202.2353 157.8437 15.58556076 39303
MYSat 1
1 44045U 18092F 19283.18809423 .00001913 00000-0 65862-4 0 9990
2 44045 51.6453 181.1115 0013056 132.8845 227.3233 15.35360702 36673
AstroCast 0.2
1 44083U 19018F 19283.65468342 .00000533 00000-0 26795-4 0 9993
2 44083 97.4569 342.6699 0013181 336.2838 23.7789 15.21473213 29249
AISTechSat 3
1 44103U 19018AB 19283.84210563 .00000655 00000-0 31064-4 0 9997
2 44103 97.4449 342.8932 0013270 353.7818 96.3037 15.22766643 29292
AISat 1
1 44104U 19018AC 19283.75554074 .00000856 00000-0 30139-4 0 9991
2 44104 97.4979 346.4329 0059464 24.0246 336.3748 15.30624039 29454
Raavana-1
1 44329U 98067QE 19283.64436273 .00010145 00000-0 16487-3 0 9990
2 44329 51.6400 147.1207 0007789 144.7579 215.3927 15.53322417 17965
Uguisu
1 44330U 98067QF 19282.87520089 n.00007306 n00000-0 n12112-3 0 9991
2 44330 051.6401 150.9831 0007781 140.4187 219.7372 15.53261975017821
NepaliSat-1
1 44331U 98067QG 19283.64177945 .00010197 00000-0 16549-3 0 9997
2 44331 51.6401 147.1041 0007771 145.2739 214.8760 15.53356219 17955
Prox-1
1 44339U 19036A 19283.28532689 .00000890 00000-0 16279-3 0 9993
2 44339 23.9989 251.9012 0010281 285.7787 74.1590 14.52682275 15566
OBJECT H
1 44346U 19036H 19283.15594930 .00008866 00000-0 13750-3 0 9996
2 44346 28.5226 226.2923 0385611 155.6335 206.3012 14.97666488 16028
OBJECT J
1 44347U 19036J 19283.14846964 .00032104 00000-0 49467-3 0 9999
2 44347 28.5297 224.3389 0368596 158.5657 203.0807 15.01858692 16048
OBJECT K
1 44348U 19036K 19283.85794661 .00007850 00000-0 11921-3 0 9998
2 44348 28.5173 221.2289 0385657 163.5581 197.7942 14.97967133 16130
Armadillo
1 44352U 19036P 19283.09701482 .00010530 00000-0 16353-3 0 9991
2 44352 28.5312 225.8882 0380978 155.8708 206.0245 14.98715273 15962
NO-104
1 44354U 19036R 19282.93964127 n.00008194 n00000-0 n12342-3 0 9999
2 44354 028.5303 226.5197 0383069 154.3971 207.6126 14.98719161015999
NO-103
1 44355U 19036S 19283.10187423 .00014277 00000-0 21720-3 0 9995
2 44355 28.5306 224.9214 0377701 157.0269 204.7699 15.00009829 16015
Oculus-ASR
1 44356U 19036T 19283.87086946 .00033253 00000-0 46634-3 0 9994
2 44356 28.5230 217.4524 0365502 169.1301 191.7560 15.04475424 16160
CP9
1 44360U 19036X 19283.91250752 .00022252 00000-0 30179-3 0 9996
2 44360 28.5157 217.6689 0378034 169.0752 191.8332 15.02534819 16036
Move-IIb
1 44398U 19038N 19283.14389697 .00001037 00000-0 64278-4 0 9991
2 44398 97.5009 243.2347 0023883 273.8830 85.9670 15.11747357 14607
SONATE
1 44400U 19038Q 19282.87815382 .00000375 00000-0 25721-4 0 9993
2 44400 97.5024 242.9842 0023762 272.6768 87.1742 15.11698692 14563
BeeSat 9
1 44412U 19038AC 19283.39863261 .00000760 00000-0 48043-4 0 9993
2 44412 97.5021 243.5127 0021333 277.2049 82.6756 15.11870636 14331
JAISAT-1
1 44419U 19038F 19282.90379851 n.00000861 n00000-0 n53244-4 0 9994
2 44419 097.5021 243.1010 0020177 278.8997 080.9949 15.12360505014570
LightSail-2
1 44420U 19036AC 19283.27734169 .00008842 00000-0 20384-2 0 9996
2 44420 24.0031 251.8760 0013393 242.5015 117.3819 14.53265093 13702
Taurus 1
1 44530U 19059C 19283.78264404 .00000398 00000-0 12619-3 0 9990
2 44530 98.5855 357.3468 0014950 185.6021 174.4999 14.45247924 4139
/EX
1
0
SB KEPS @ AMSAT $ORB19276.N
2Line Orbital Elements 19276.AMSAT
HR AMSAT ORBITAL ELEMENTS FOR AMATEUR SATELLITES IN NASA FORMAT
FROM WA5QGD FORT WORTH,TX October 3, 2019
BID: ORB19276.N
DECODE 2-LINE ELSETS WITH THE FOLLOWING KEY:
1 AAAAAU 00 0 0 BBBBB.BBBBBBBB .CCCCCCCC 00000-0 00000-0 0 DDDZ
2 AAAAA EEE.EEEE FFF.FFFF GGGGGGG HHH.HHHH III.IIII JJ.JJJJJJJJKKKKKZ
KEY: A-CATALOGNUM B-EPOCHTIME C-DECAY D-ELSETNUM E-INCLINATION F-RAAN
G-ECCENTRICITY H-ARGPERIGEE I-MNANOM J-MNMOTION K-ORBITNUM Z-CHECKSUM
TO ALL RADIO AMATEURS BT
AO-07
1 07530U 74089B 19276.73344045 -.00000037 00000-0 49102-4 0 9999
2 07530 101.7579 243.3458 0012267 138.9587 343.9099 12.53640042 53939
UO-11
1 14781U 84021B 19276.63671759 .00000071 00000-0 14785-4 0 9992
2 14781 97.6060 296.2665 0007800 338.2332 21.8550 14.83109595914613
LO-19
1 20442U 90005G 19276.71384456 .00000008 00000-0 19245-4 0 9992
2 20442 98.6566 218.5726 0011456 188.7557 171.3428 14.32933856551701
HUBBLE
1 20580U 90037B 19276.29279067 .00000489 00000-0 18830-4 0 9996
2 20580 28.4688 227.0193 0002703 186.8850 323.8526 15.09274864417013
MET-2/21
1 22782U 93055A 19276.61159369 .00000016 00000-0 92025-6 0 9999
2 22782 82.5466 78.2156 0021278 236.6558 174.3103 13.83820641317655
AO-27
1 22825U 93061C 19276.54869004 -.00000023 00000-0 90680-5 0 9993
2 22825 98.9122 267.6669 0009268 52.3097 307.8923 14.30067490357220
IO-26
1 22826U 93061D 19276.73530109 -.00000016 00000-0 11721-4 0 9996
2 22826 98.9062 267.8359 0009646 41.2040 318.9868 14.30401556357458
FO-29
1 24278U 96046B 19276.62081182 -.00000036 00000-0 14473-5 0 9995
2 24278 98.5540 55.5972 0349668 322.9441 34.8007 13.53093532142261
NOAA-15
1 25338U 98030A 19276.63554929 .00000010 00000-0 23110-4 0 9991
2 25338 98.7421 297.6842 0009410 294.7129 65.3071 14.25933170112483
GO-32
1 25397U 98043D 19276.37606528 -.00000005 00000-0 17258-4 0 9995
2 25397 98.6957 215.2595 0002392 87.1508 272.9945 14.23671455103051
ISS
1 25544U 98067A 19276.84077073 .00002514 00000-0 51787-4 0 9995
2 25544 51.6442 182.4500 0007553 112.5769 355.3109 15.50144218192116
NO-44
1 26931U 01043C 19276.74885900 -.00000036 00000-0 18085-4 0 9991
2 26931 67.0500 87.4182 0007431 269.4807 90.5443 14.30554007940289
SO-50
1 27607U 02058C 19276.08789357 -.00000008 00000-0 19744-4 0 9997
2 27607 64.5541 84.3001 0075923 235.8441 123.5447 14.75575270902738
CO-55
1 27844U 03031E 19276.59091339 .00000039 00000-0 37249-4 0 9997
2 27844 98.6856 283.2109 0010965 82.8411 277.4013 14.22197228843488
CO-57
1 27848U 03031J 19276.26167859 .00000021 00000-0 29503-4 0 9991
2 27848 98.6931 283.4087 0010878 94.1162 266.1259 14.21789898843289
RS-22
1 27939U 03042A 19276.73906160 .00000138 00000-0 33357-4 0 9993
2 27939 98.0570 50.5621 0014193 89.4708 270.8126 14.66806926856232
NOAA-18
1 28654U 05018A 19276.60220176 .00000055 00000-0 54515-4 0 9992
2 28654 99.0847 325.1156 0013552 234.5735 125.4171 14.12455996740606
CO-58
1 28895U 05043F 19276.83647500 .00000124 00000-0 32673-4 0 9994
2 28895 97.9749 55.9904 0017090 18.1403 342.0406 14.63695511743155
Falconsat-3
1 30776U 07006E 19276.06476198 .00002758 00000-0 76838-4 0 9990
2 30776 35.4340 131.6196 0003004 332.5495 27.5073 15.36557302697057
CO-65
1 32785U 08021C 19276.71727688 .00000198 00000-0 26976-4 0 9999
2 32785 97.5556 271.4144 0011494 268.2125 91.7776 14.88351645619606
AAUSAT2
1 32788U 08021F 19276.28797624 .00000124 00000-0 16408-4 0 9999
2 32788 97.4960 287.2999 0011256 195.2687 164.8196 14.94808395620840
DO-64
1 32789U 08021G 19276.18530775 .00000896 00000-0 63555-4 0 9992
2 32789 97.4543 322.5883 0013719 118.2741 241.9874 15.07144490623000
CO-66
1 32791U 08021J 19276.55515443 .00000409 00000-0 46855-4 0 9995
2 32791 97.5315 277.3313 0011979 238.8080 121.1965 14.90878529620035
